Lid_Strength_Index
10 10 11 12 12 11 11 11 10 11 11 11 11 11 10 10 10 10 10 9 9 8 7 7 5 4 3 2 2 3 3 3
11 11 11 11 12 12 12 11 10 10 10 11 12 11 11 11 11 10 10 9 9 8 8 7 6 5 4 3 3 3 4 4
12 11 11 11 13 12 12 11 11 10 10 11 11 12 12 12 11 11 10 9 9 9 8 8 7 6 4 5 5 6 7 7
12 12 12 12 13 13 12 12 11 10 10 10 11 11 12 12 12 11 11 10 10 10 9 9 9 8 8 8 8 9 9 8
13 13 12 13 13 13 12 12 11 10 10 10 11 11 11 11 11 11 10 11 10 10 9 9 9 9 8 9 9 9 10 10
17 15 16 14 14 14 13 13 11 11 11 11 10 10 11 11 11 11 11 10 10 10 10 10 9 8 9 9 9 10 11 12
16 15 15 16 15 14 16 14 12 12 11 11 11 10 11 11 11 11 11 10 10 10 10 10 10 9 9 9 10 10 11 11
14 15 16 15 14 15 14 13 13 13 13 13 14 13 12 11 11 12 11 11 11 10 10 11 10 9 9 10 10 10 11 12
12 13 14 15 16 14 14 14 13 12 12 12 13 14 14 13 11 11 11 11 11 11 11 11 11 10 10 10 11 12 12 12
12 13 14 14 15 15 15 15 15 14 14 14 14 14 14 14 14 14 13 12 12 12 12 12 12 10 10 11 13 13 13 13
12 14 14 15 15 15 15 15 15 15 15 15 14 14 14 14 14 14 14 14 14 13 14 13 13 11 10 11 13 14 14 14
13 14 15 15 15 16 16 15 15 15 15 15 15 15 15 15 15 14 14 14 15 15 15 15 14 13 11 11 13 14 14 14
14 15 15 16 16 16 16 16 17 17 17 18 18 16 16 18 18 17 17 17 17 16 16 15 15 12 11 11 11 11 14 14
15 17 18 18 17 17 17 17 19 20 20 20 19 18 17 18 19 19 19 19 18 17 16 16 15 15 11 11 11 11 14 14
17 18 17 19 17 18 18 18 18 19 20 20 20 20 20 17 17 19 20 19 18 18 19 19 18 17 16 15 15 13 13 12
16 16 16 18 18 20 20 19 19 19 19 18 18 19 19 18 18 17 17 17 19 19 18 18 19 17 15 15 16 18 15 18
16 17 17 17 17 18 18 18 18 18 18 17 17 18 18 18 19 15 14 13 12 12 15 17 14 12 12 12 12 13 13 20
16 16 17 17 16 16 17 17 17 17 17 17 17 17 17 18 18 18 18 13 13 13 13 12 14 12 12 12 12 12 12 23
17 17 17 17 15 16 16 17 16 17 18 16 17 16 17 17 17 18 18 18 19 15 14 13 13 13 13 13 12 14 13 15
16 15 19 18 17 17 16 16 17 18 17 16 17 17 16 17 17 16 17 17 18 21 15 14 13 12 13 12 14 15 15 14